DECAYED

STARLINK-1358, 45566 (Decayed)

Orbit data source: Space-Track

STARLINK-1358, 45566 was a payload satellite owned by SpaceX/Seattle (US) in LEO that was launched on Wed, 22 Apr 2020 UTC via an FALCON 9 launch vehicle from the Air Force Eastern Test Range (AFETR). Payload-class satellites include a variety of spacecraft equipped with specific instruments for various scientific and technological missions. These include communications satellites like Starlink; space stations such as the ISS; scientific satellites like the Hubble; Earth observation satellites from companies like Planet Labs, Umbra, and HawkEye 360; GPS; miniature CubeSats for education and research; and military/defense satellites.

Not visible in the next 10 days
Identifier
45566, 2020-025AM
Orbit
Decayed
Country
Flag of USUS
Related business
Manufacturer
SpaceX/Seattle
Mission
Decayed Commercial Communications
Bus & Motor
STARLINK, Unknown motor
Mass
260 kg wet, ~248 kg dry
Launch date (UTC)
2020-04-22 (6 years ago)
Launch vehicle
FALCON 9
Launch site
Air Force Eastern Test Range (AFETR)
Object type
Payload
Rocket body
Debris
Shape & HBR
Box + 1 Pan, 10.1 m
Radar Cross Section
13.562 m², Large (>1 m²)

Expand to show TLE details & history
Last TLE update: 1 year ago

TLE from 1 year ago
0 STARLINK-1358
1 45566U 20025AM  25132.98672630  .14616423  12469-4  40601-3 0  9996
2 45566  53.0219 289.4703 0011723 264.8516 194.2996 16.44477035280334
Epoch: 2025-05-12T23:40Z
TLE epoch observation values (Epoch: 2025-05-12T23:40:53.152Z)
Latitude
52.2288°
Longitude
168.21375°
Altitude
167.599 km
Speed
7.808 km/s
True Right ascension
02h 17m 42s
True Declination
52° 02' 50"
Sunlit
Object was in daylight at epoch
Visualization orbit readout
Latitude
Unknown
Longitude
Unknown
Altitude
Unknown
Speed
Unknown
Apparent Right ascension
Unknown
Apparent Declination
Unknown
Sunlit
N/A
Visualization observer readout
Local Sidereal Time
17:25:08
Azimuth
Unknown
Elevation
Unknown
Doppler factor
Unknown
Orbital elements
Apogee altitude
161.87 km
Perigee altitude
146.554 km
Semi-major axis
6,532.349 km
Eccentricity
0.00117
Inclination
53.0219°
RAAN
289.4703°
Arg. of periapsis
264.8516°
True anomaly
194.26647°
Mean anomaly
194.2996°
Eccentric anomaly
194.28303°
Mean motion
4.11092 °/min
Orbital period
87.57 mins
BSTAR
0.00040601
Loading maneuver chart data...
Computing Atmospheric mass density...

Documentation

Showing up to 5 results
|